Location: Gälforsberget
(66.6500°N, 22.4167°E)
Time: 10:38:56
(UTC+00:00)

Cosmos 2173 Rocket - Pass Details

Date: 11 April 2026
Orbit: 944 x 999 km, 83.0° (Epoch: 19 May)

Event Time Altitude Azimuth Distance (km) Brightness Sun altitude
Exits shadow 22:55:43 20° 199° (SSW) 2,023 5.1 -14.6°
Maximum altitude 23:00:05 86° 287° (WNW) 958 4.0 -14.6°
Drops below altitude 10° 23:06:14 10° 18° (NNE) 2,686 7.7 -14.5°
Sets 23:08:44 0° 19° (NNE) 3,638 8.8 -14.4°
